Starlink 11302

operational
NORAD ID: 61204 Int'l Des: 2024-171 Owner: SPXS Country: US Constellation: starlink
LEOCIRCULAR

关于 Starlink 11302

正在加载描述...

实时位置

正在加载3D地球...

即将过境

高度历史

Altitude vs Time

uPlot chart will show altitude changes over time

两行轨道根数

1 61204U 24171E 25304.78740360 -.00002237 00000-0 -13628-4 0 9997
2 61204 53.1581 91.6698 0000362 100.8287 259.2772 15.69695103 64159
Epoch: Oct 31, 2025 • Age: 6 hours

当前状态

高度 378.4 km
速度 7.68 km/s
星下点 -52.92°S, 58.75°W
发射日期 Sep 20, 2024
运行时间 1.1 years
类型 internet

技术详情

分类 Payload
质量 960.00 kg
干质量 910.00 kg
总质量 960.00 kg
长度 0.30 m
直径 4.10 m
跨度 29.00 m
形状 Box + pan
制造商 SPXS
平台类型 Starlink V2MD
阶段状态 In Orbit
所有者/国家 SPXS/US

大型星座

Loading constellations...